Terug naar catalogus

IRIDIUM 152

ActiefCommunicatiePO
NORAD 43479·PAYLOAD·🇺🇸 United States

Gelanceerd May 22, 2018 vanaf Vandenberg Space Force Base

Loading…

Volgende Passages (komende 24 uur)

TLE

VersSource: CelesTrak SupGP

Epoch: Sep 14, 2026, 10:16 UTC

1 43479C 18047D   26257.42812500 -.00000466  00000+0 -16655-3 0  2571
2 43479  86.3943  50.9854 0002263  93.4156  23.2841 14.34219362    10

Volg IRIDIUM 152 in realtime met AllMySat

Download on the App Store